User: anonymous   Login
Location: Budapest
(47.4979°N, 19.0402°E)
Time: 01:18:20
(UTC+02:00)
Language:

STARS - Orbit

View from above orbital plane
View from above orbital plane
View from above satellite
View from above satellite

Ground track
Ground track

The orbit data is extracted from the following two-line orbital elements,

1 33498U 09002G   18111.49247758  .00000294  00000-0  47630-4 0  9995
2 33498  98.3324 301.1671 0012372  84.6074 327.7138 14.78784795497462
Epoch (UTC): 21 April 2018 11:49:10
Eccentricity: 0.0012372
inclination: 98.3324°
perigee height: 624 km
apogee height: 642 km
right ascension of ascending node: 301.1671°
argument of perigee: 84.6074°
revolutions per day: 14.78784795
mean anomaly at epoch: 327.7138°
orbit number at epoch: 49746

The dashed part of the orbit path shows where the satellite is in the earth's shadow,  

DLR